Hourly Data Report for December 04, 2017

ST. JOHN'S INTL A
NEWFOUNDLAND

47°37'07.000" N
52°45'09.000" W
140.50 m
8403505
71801
YYT

Download Data

Hourly Data (December 2017)
Hourly Data Report for December 4, 2017
TIME
LST
Temp Definition
°C
Dew Point Definition
°C
Rel Hum Definition
%
Precip. Amount Definition
mm

Wind Dir Definition
10's deg

Wind Spd Definition
km/h
Visibility Definition
km
Stn Press Definition
kPa
Hmdx Definition


Wind Chill Definition


Weather Definition


00:30 0.0 -0.4 97   2 23 24.1 100.25   -6 LegendNANA
01:30 0.1 -0.4 96   1 21 24.1 100.26     LegendNANA
02:30 0.3 -0.3 96   2 24 24.1 100.24     Cloudy
03:30 0.4 -0.2 96   2 26 24.1 100.25     LegendNANA
04:30 0.6 0.1 97   2 25 24.1 100.25     Snow
05:30 0.8 0.2 96   3 30 16.1 100.27     Snow, Snow Showers
06:30 0.9 0.3 96   3 28 8.1 100.30     Fog
07:30 1.0 0.4 96   3 30 16.1 100.32     LegendNANA
08:30 1.0 0.6 97   3 27 16.1 100.36     Snow Showers
09:30 1.1 0.6 96   3 28 16.1 100.40     Snow Showers
10:30 1.1 0.7 97   3 32 16.1 100.39     Snow Showers
11:30 1.1 0.7 98   3 26 19.3 100.36     Snow Showers
12:30 1.0 0.6 97   2 27 19.3 100.31     LegendNANA
13:30 0.9 0.6 98   3 28 16.1 100.29     Snow Showers
14:30 0.7 0.4 98   2 31 16.1 100.31     Snow Showers
15:30 0.6 0.3 98   2 29 16.1 100.34     LegendNANA
16:30 0.7 0.4 98   2 29 16.1 100.41     LegendNANA
17:30 0.7 0.5 99   1 26 8.1 100.49     Fog
18:30 0.8 0.7 99   2 33 2.4 100.47     Drizzle, Fog
19:30 1.0 1.0 100   2 34 2.4 100.49     Fog
20:30 1.2 1.2 100   2 28 6.4 100.43     Drizzle, Fog
21:30 1.3 1.0 98   3 30 12.9 100.48     LegendNANA
22:30 1.2 0.8 97   2 22 9.7 100.51     Fog
23:30 1.2 0.6 96   2 23 12.9 100.51     Rain Showers

Notes on Data Quality.

Legend

  • E = Estimated
  • M = Missing
  • NA = Not Available*
  • [empty] = Indicates an unobserved value
Date modified: